Home   Weather   Astana   Past weeks

Flag for Kazakhstan Past Weather in Astana, Kazakhstan — Yesterday and Last 2 Weeks

28 °F


Feels Like: 19 °F
Forecast: 7 / 27 °F
Wind: 10 mph from Southwest

Location: Astana

Current Time: Oct 27, 2016 at 5:07:49 PM

Latest Report: Oct 27, 2016 at 4:30 PM

Visibility: 10 mi

Pressure: 30.80 "Hg

Humidity: 59%

Dew Point: 16 °F

Location of AstanaLocation

Past Weather in Astana — Graph


Astana Temperature Yesterday

Maximum temperature yesterday: 27 °F (at 1:30 PM)
Minimum temperature yesterday: 18 °F (at 11:00 PM)
Average temperature yesterday: 22 °F

High & Low Weather Summary for the Past Weeks

High39 °F (Oct 15, 2:00 PM)100% (Oct 14, 8:30 AM)30.89 "Hg (Oct 14, 8:30 AM)
Low9 °F (Oct 27, 5:30 AM)48% (Oct 16, 3:00 PM)29.77 "Hg (Oct 18, 1:30 PM)
Average26 °F83%30.31 "Hg
* Reported Oct 12 4:00 PM — Oct 27 4:00 PM, Astana, Weather by CustomWeather, © 2016

Note: Actual official high and low records may vary slightly from our data, if they occured in-between our weather recording intervals... More about our weather records


Astana Weather History for the Previous 24 Hours

Scroll right to see more
Time TempWeatherWind HumidityBarometerVisibility
4:00 PM
Thu, Oct 27
30 °FSunny.10 mph59%30.80 "Hg10 mi
3:30 PM30 °FSunny.10 mph59%30.80 "Hg10 mi
3:00 PM30 °FSunny.10 mph59%30.83 "Hg10 mi
2:30 PM30 °FSunny.10 mph55%30.83 "Hg10 mi
2:00 PM30 °FSunny.10 mph55%30.83 "Hg10 mi
1:30 PM28 °FPassing clouds.8 mph64%30.86 "HgN/A
1:00 PM28 °FSunny.10 mph64%30.86 "Hg10 mi
12:30 PM27 °FSunny.10 mph69%30.86 "Hg10 mi
12:00 PM27 °FSunny.8 mph64%30.86 "Hg10 mi
11:30 AM23 °FSunny.6 mph74%30.89 "Hg10 mi
11:00 AM19 °FSunny.8 mph79%30.89 "Hg10 mi
10:30 AM18 °FSunny.6 mph79%30.89 "Hg10 mi
10:00 AM16 °FSunny.6 mph86%30.89 "Hg10 mi
9:30 AM14 °FSunny.6 mph85%30.89 "Hg10 mi
9:00 AM12 °FSunny.6 mph85%30.89 "Hg10 mi
8:30 AM10 °FClear.6 mph85%30.89 "Hg10 mi
8:00 AM10 °FClear.6 mph85%30.89 "Hg10 mi
7:30 AM10 °FClear.3 mph85%30.89 "Hg10 mi
7:00 AM10 °FPassing clouds.3 mph85%30.89 "HgN/A
6:30 AM10 °FClear.8 mph85%30.89 "Hg10 mi
6:00 AM10 °FClear.8 mph85%30.89 "Hg10 mi
5:30 AM9 °FClear.6 mph85%30.89 "Hg10 mi
4:30 AM10 °FClear.3 mph85%30.89 "Hg10 mi
4:00 AM10 °FClear.1 mph85%30.89 "Hg10 mi
3:30 AM10 °FClear.3 mph85%30.89 "Hg10 mi
3:00 AM12 °FClear.3 mph85%30.89 "Hg10 mi
2:30 AM12 °FClear.3 mph92%30.89 "Hg10 mi
2:00 AM12 °FClear.6 mph85%30.89 "Hg10 mi
1:30 AM14 °FClear.6 mph85%30.89 "Hg10 mi
1:00 AM14 °FClear.8 mph85%30.89 "Hg10 mi
12:30 AM14 °FClear.6 mph85%30.89 "Hg10 mi
12:00 AM16 °FClear.8 mph86%30.89 "Hg10 mi
11:30 PM
Wed, Oct 26
18 °FClear.10 mph79%30.89 "Hg10 mi
11:00 PM18 °FClear.8 mph79%30.89 "Hg10 mi
10:30 PM19 °FClear.10 mph79%30.89 "Hg10 mi
10:00 PM21 °FClear.10 mph74%30.89 "Hg10 mi
9:30 PM21 °FClear.10 mph74%30.89 "Hg10 mi
9:00 PM19 °FClear.10 mph79%30.89 "Hg10 mi
8:30 PM19 °FClear.10 mph79%30.89 "Hg10 mi
8:00 PM21 °FClear.10 mph74%30.89 "Hg10 mi
7:30 PM21 °FClear.10 mph74%30.89 "Hg10 mi
7:00 PM21 °FPassing clouds.8 mph74%30.89 "HgN/A
6:30 PM21 °FPartly sunny.8 mph74%30.89 "HgN/A
6:00 PM23 °FPartly sunny.10 mph68%30.86 "HgN/A
5:30 PM25 °FPartly sunny.10 mph63%30.86 "HgN/A
5:00 PM25 °FPartly sunny.10 mph63%30.86 "HgN/A
Weather by CustomWeather, © 2016

See weather overviewHow to use our weather pages